(299940) = 2006 TG43

Discovered at Kitt Peak on 2006-10-12 by Spacewatch.

Orbit

Orbit type: Main Belt

Note: WebGL enabled browser required.

epoch2023-09-13.0
epoch JD2460200.5
perihelion date2022-03-22.99834
perihelion JD2459661.49834
argument of perihelion (°)268.22966
ascending node (°)65.42836
inclination (°)0.61932
eccentricity0.2370300
perihelion distance (AU)2.3357516
Tisserand w.r.t. Jupiter3.2
ΔV w.r.t. Earth (km/sec)9.7
semimajor axis (AU)3.0613939
mean anomaly (°)99.17795
mean daily motion (°/day)0.18400310
aphelion distance (AU)3.787
period (years)5.36
P-vector [x]0.89610845
P-vector [y]-0.40279264
P-vector [z]-0.18640744
Q-vector [x]0.44372628
Q-vector [y]0.82234566
Q-vector [z]0.35616652
absolute magnitude16.6
phase slope0.15
uncertainty0
referenceMPEC 2024-C06
observations used217
oppositions12
arc length (days)10322
first opposition used1995
last opposition used2024
residual rms (arc-secs)0.71
perturbers coarse indicatorM-v
perturbers precise indicator003Ek
first observation date used1995-10-28.0
last observation date used2024-01-31.0
computer nameMPCLINUX
JD of orbit computation2455934.260922
perihelion JD uncertainty (days)1.1484E-04
argument of perihelion uncertainty (°)6.9072E-04
ascending node uncertainty (°)6.9017E-04
inclination uncertainty (°)9.3806E-06
eccentricity uncertainty 7.6531E-08
perihelion distance uncertainty (AU)2.4896E-07
Minimum Orbit Intersection Distances (in AU)
for orbit epoch: 2460200.5, reference: E2024-AC4
Mercury1.93468
Venus1.60905
Earth1.32515
Mars0.95483
Jupiter1.58473
Saturn5.46132
Uranus14.6681
Neptune26.6422

Observations

219 total observations over interval: 1995 10 28.24693 – 2024 01 31.324929
These data are available for download (format description).

Date (UT) J2000 RA J2000 Dec Magn Location Ref
1995 10 28.24693 01 34 58.47 +09 15 30.7   691 – Steward Observatory, Kitt Peak-Spacewatch MPS 326362
1995 10 28.26819 01 34 57.44 +09 15 25.6 20.1 V 691 – Steward Observatory, Kitt Peak-Spacewatch MPS 326362
1995 10 28.29221 01 34 56.28 +09 15 19.3   691 – Steward Observatory, Kitt Peak-Spacewatch MPS 326362
2006 10 12.36904 03 27 58.33 +18 28 35.2   691 – Steward Observatory, Kitt Peak-Spacewatch MPS 183146
2006 10 12.38644 03 27 57.75 +18 28 33.0   691 – Steward Observatory, Kitt Peak-Spacewatch MPS 183146
2006 10 12.40387 03 27 57.17 +18 28 31.2   691 – Steward Observatory, Kitt Peak-Spacewatch MPS 183146
2006 10 16.41003 03 25 41.53 +18 20 53.9 21.1 V 691 – Steward Observatory, Kitt Peak-Spacewatch MPS 183146
2006 10 16.42746 03 25 40.87 +18 20 51.3 21.0 V 691 – Steward Observatory, Kitt Peak-Spacewatch MPS 183146
2006 10 16.44488 03 25 40.18 +18 20 49.1 20.7 V 691 – Steward Observatory, Kitt Peak-Spacewatch MPS 183146
2006 10 27.34825 03 17 51.54 +17 53 28.5 20.3 V G96 – Mt. Lemmon Survey MPS 184214
2006 10 27.35823 03 17 51.03 +17 53 26.8 20.6 V G96 – Mt. Lemmon Survey MPS 184214
2006 10 27.36824 03 17 50.53 +17 53 24.8 20.4 V G96 – Mt. Lemmon Survey MPS 184214
2006 10 27.37828 03 17 50.02 +17 53 23.4 20.2 V G96 – Mt. Lemmon Survey MPS 184214
2006 11 01.38077 03 13 39.76 +17 38 15.8 20.4 V 691 – Steward Observatory, Kitt Peak-Spacewatch MPS 185635
2006 11 01.39822 03 13 38.83 +17 38 12.6 20.4 V 691 – Steward Observatory, Kitt Peak-Spacewatch MPS 185635
2006 11 01.41562 03 13 37.90 +17 38 09.0 20.3 V 691 – Steward Observatory, Kitt Peak-Spacewatch MPS 185635
2006 11 11.31991 03 04 56.31 +17 05 31.8 19.8 V G96 – Mt. Lemmon Survey MPS 187113
2006 11 11.32492 03 04 56.02 +17 05 30.8 19.7 V G96 – Mt. Lemmon Survey MPS 187113
2006 11 11.33004 03 04 55.74 +17 05 29.6 19.7 V G96 – Mt. Lemmon Survey MPS 187113
2006 11 11.33496 03 04 55.48 +17 05 28.7 19.6 V G96 – Mt. Lemmon Survey MPS 187113
2006 11 12.24910 03 04 07.28 +17 02 22.5 19.1 V 703 – Catalina Sky Survey MPS 187113
2006 11 12.25470 03 04 07.03 +17 02 21.0 19.7 V 703 – Catalina Sky Survey MPS 187113
2006 11 12.26036 03 04 06.78 +17 02 20.8 20.0 V 703 – Catalina Sky Survey MPS 187113
2006 11 12.26608 03 04 06.45 +17 02 21.1 20.2 V 703 – Catalina Sky Survey MPS 187113
2006 11 13.24327 03 03 15.08 +16 59 01.8 20.4 V G96 – Mt. Lemmon Survey MPS 187113
2006 11 13.24542 03 03 14.97 +16 59 01.7 20.4 V G96 – Mt. Lemmon Survey MPS 187113
2006 11 13.24755 03 03 14.86 +16 59 00.8 20.4 V G96 – Mt. Lemmon Survey MPS 187113
2006 11 13.24968 03 03 14.79 +16 59 00.2 20.2 V G96 – Mt. Lemmon Survey MPS 187113
2006 11 21.17627 02 56 33.64 +16 32 50.5 20.0 V G96 – Mt. Lemmon Survey MPS 188782
2006 11 21.18515 02 56 33.18 +16 32 48.4 20.0 V G96 – Mt. Lemmon Survey MPS 188782
2006 11 21.19419 02 56 32.71 +16 32 47.0 20.3 V G96 – Mt. Lemmon Survey MPS 188782
2006 11 21.20328 02 56 32.28 +16 32 45.2 20.3 V G96 – Mt. Lemmon Survey MPS 188782
2006 12 14.20597 02 42 57.38 +15 38 36.8 20.8 V G96 – Mt. Lemmon Survey MPS 192328
2006 12 14.21375 02 42 57.24 +15 38 36.0 20.6 V G96 – Mt. Lemmon Survey MPS 192328
2006 12 14.22142 02 42 57.06 +15 38 35.5 21.0 V G96 – Mt. Lemmon Survey MPS 192328
2006 12 14.22902 02 42 56.91 +15 38 35.1 20.6 V G96 – Mt. Lemmon Survey MPS 192328
2008 01 11.23584 08 24 03.68 +20 02 26.1 21.0 V 691 – Steward Observatory, Kitt Peak-Spacewatch MPS 326362
2008 01 11.25109 08 24 02.95 +20 02 28.6 21.7 V 691 – Steward Observatory, Kitt Peak-Spacewatch MPS 326362
2008 01 11.26633 08 24 02.14 +20 02 31.1 21.3 V 691 – Steward Observatory, Kitt Peak-Spacewatch MPS 326362
2010 05 12.37265 15 19 29.37 -18 07 02.9 20.8 V 691 – Steward Observatory, Kitt Peak-Spacewatch MPS 326362
2010 05 12.39038 15 19 28.44 -18 06 59.7 20.9 V 691 – Steward Observatory, Kitt Peak-Spacewatch MPS 326362
2010 05 12.40809 15 19 27.45 -18 06 56.0 20.9 V 691 – Steward Observatory, Kitt Peak-Spacewatch MPS 326362
2010 06 10.23800 14 57 29.95 -16 44 10.1 20.9 V G96 – Mt. Lemmon Survey MPS 330811
2010 06 10.24272 14 57 29.84 -16 44 09.6 20.7 V G96 – Mt. Lemmon Survey MPS 330811
2010 06 10.24749 14 57 29.62 -16 44 08.8 21.2 V G96 – Mt. Lemmon Survey MPS 330811
2010 06 10.25221 14 57 29.48 -16 44 08.1 20.4 V G96 – Mt. Lemmon Survey MPS 330811
2010 06 17.19382 14 54 00.14 -16 30 34.2 21.0 V G96 – Mt. Lemmon Survey MPS 331937
2010 06 17.20084 14 54 00.00 -16 30 34.7 21.6 V G96 – Mt. Lemmon Survey MPS 331937
2010 06 17.20784 14 53 59.82 -16 30 33.6 21.8 V G96 – Mt. Lemmon Survey MPS 331937
2010 06 17.21488 14 53 59.60 -16 30 32.9 21.6 V G96 – Mt. Lemmon Survey MPS 331937
2010 08 04.374578 14 59 43.243 -17 03 28.80   C51 – WISE MPS 926984
2010 08 04.506881 14 59 48.40 -17 03 47.0   C51 – WISE MPS 344923
2010 08 04.97001 15 00 06.23 -17 05 06.5   C51 – WISE MPS 344923
2010 08 05.036096 15 00 08.815 -17 05 18.60   C51 – WISE MPS 926984
2010 08 05.102185 15 00 11.42 -17 05 29.6   C51 – WISE MPS 344923
2010 08 05.102313 15 00 11.52 -17 05 29.0   C51 – WISE MPS 344923
2010 08 05.168400 15 00 14.00 -17 05 43.3   C51 – WISE MPS 344923
2010 08 05.234488 15 00 16.54 -17 05 52.6   C51 – WISE MPS 344923
2010 08 05.366793 15 00 21.87 -17 06 16.5   C51 – WISE MPS 344923
2010 08 05.631404 15 00 32.28 -17 07 01.1   C51 – WISE MPS 344923
2011 06 27.40934 23 55 32.34 -01 16 56.7 20.6 V G96 – Mt. Lemmon Survey MPS 385795
2011 06 27.41634 23 55 32.73 -01 16 53.4 21.2 V G96 – Mt. Lemmon Survey MPS 385795
2011 06 27.42330 23 55 33.09 -01 16 51.4 21.4 V G96 – Mt. Lemmon Survey MPS 385795
2011 06 27.43032 23 55 33.52 -01 16 48.0 21.1 V G96 – Mt. Lemmon Survey MPS 385795
2011 09 20.41139 00 00 17.60 -01 02 40.4 19.2 V G96 – Mt. Lemmon Survey MPS 391144
2011 09 20.41906 00 00 17.24 -01 02 42.6 19.2 V G96 – Mt. Lemmon Survey MPS 391144
2011 09 20.42682 00 00 16.88 -01 02 44.7 19.2 V G96 – Mt. Lemmon Survey MPS 391144
2011 09 20.43444 00 00 16.52 -01 02 47.0 19.2 V G96 – Mt. Lemmon Survey MPS 391144
2011 09 21.36986 23 59 35.136 -01 07 08.94 19.7 w F51 – Pan-STARRS 1, Haleakala MPS 391144
2011 09 21.38392 23 59 34.477 -01 07 12.93 19.8 w F51 – Pan-STARRS 1, Haleakala MPS 391144
2011 09 21.39796 23 59 33.811 -01 07 16.83 19.5 w F51 – Pan-STARRS 1, Haleakala MPS 391144
2011 09 21.41202 23 59 33.148 -01 07 20.79 19.4 w F51 – Pan-STARRS 1, Haleakala MPS 391144
2011 09 26.23271 23 55 58.31 -01 29 44.1 18.8   704 – Lincoln Laboratory ETS, New Mexico MPS 392671
2011 09 26.24533 23 55 57.74 -01 29 47.5 19.5   704 – Lincoln Laboratory ETS, New Mexico MPS 392671
2011 09 26.25795 23 55 57.15 -01 29 51.3 19.5   704 – Lincoln Laboratory ETS, New Mexico MPS 392671
2011 09 26.27067 23 55 56.57 -01 29 54.5 19.4   704 – Lincoln Laboratory ETS, New Mexico MPS 392671
2011 09 26.28330 23 55 55.98 -01 29 57.7 19.2   704 – Lincoln Laboratory ETS, New Mexico MPS 392671
2011 10 01.24966 23 52 21.86 -01 51 55.1 19.6 V G96 – Mt. Lemmon Survey MPS 394232
2011 10 01.25741 23 52 21.50 -01 51 57.2 19.5 V G96 – Mt. Lemmon Survey MPS 394232
2011 10 01.26506 23 52 21.18 -01 51 59.2 19.6 V G96 – Mt. Lemmon Survey MPS 394232
2011 10 01.27291 23 52 20.82 -01 52 01.2 19.5 V G96 – Mt. Lemmon Survey MPS 394232
2011 10 18.23896 23 42 42.87 -02 48 25.0 19.9 V G96 – Mt. Lemmon Survey MPS 396203
2011 10 18.24507 23 42 42.69 -02 48 26.1 19.9 V G96 – Mt. Lemmon Survey MPS 396203
2011 10 18.25125 23 42 42.55 -02 48 26.9 19.8 V G96 – Mt. Lemmon Survey MPS 396203
2011 10 18.25742 23 42 42.37 -02 48 27.6 19.8 V G96 – Mt. Lemmon Survey MPS 396203
2011 11 17.15918 23 41 43.72 -02 41 26.7 20.6 V G96 – Mt. Lemmon Survey MPS 401015
2011 11 17.16613 23 41 43.87 -02 41 25.5 20.4 V G96 – Mt. Lemmon Survey MPS 401015
2011 11 17.17307 23 41 44.01 -02 41 24.8 20.5 V G96 – Mt. Lemmon Survey MPS 401015
2011 11 17.17990 23 41 44.12 -02 41 23.6 20.9 V G96 – Mt. Lemmon Survey MPS 401015
2011 12 25.06937 00 08 58.92 +00 29 50.3 21.4 V G96 – Mt. Lemmon Survey MPS 405873
2011 12 25.07584 00 08 59.31 +00 29 52.9 21.0 V G96 – Mt. Lemmon Survey MPS 405873
2011 12 25.08231 00 08 59.67 +00 29 56.0 21.8 V G96 – Mt. Lemmon Survey MPS 405873
2011 12 25.08879 00 09 00.10 +00 29 58.4 20.8 V G96 – Mt. Lemmon Survey MPS 405873
2015 04 18.27535 13 30 54.87 -08 54 02.8 21.9 V W84 – Cerro Tololo-DECam MPS 789479
